Waarnemingen

Advertentie
Mijn weer
Edsbyn, Zweden (2336): temperatuur & dauwpunt: 19.05.2019 22:00:00 - 25.05.2019 22:00:00 (CEST)Edsbyn, Zweden (2336): windsnelheid: 19.05.2019 22:00:00 - 25.05.2019 22:00:00 (CEST)Edsbyn, Zweden (2336): windrichting: 19.05.2019 22:00:00 - 25.05.2019 22:00:00 (CEST)Edsbyn, Zweden (2336): luchtdruk: 19.05.2019 22:00:00 - 25.05.2019 22:00:00 (CEST)Edsbyn, Zweden (2336): zicht: 19.05.2019 22:00:00 - 25.05.2019 22:00:00 (CEST)
Datum & Tijd tt [°C] td [°C] ff [km/u] ff [kn] dd ppp [hPa] vv [km]
25.05.2019 22:00:00 - - - - - - -
25.05.2019 21:00:00 7,9 7,3 7 4 OZO 1003,4 50
25.05.2019 20:00:00 8,8 8,0 7 4 OZO 1003,5 45
25.05.2019 19:00:00 8,4 7,6 14 8 ZO 1003,7 50
25.05.2019 18:00:00 9,0 8,2 14 8 ZZO 1003,9 50
25.05.2019 17:00:00 9,8 8,6 14 8 ZZO 1004,0 50
25.05.2019 16:00:00 10,2 9,4 14 8 ZZO 1004,2 40
25.05.2019 15:00:00 9,6 7,0 18 10 ZO 1004,2 50
25.05.2019 14:00:00 10,2 7,8 14 8 ZZO 1004,5 40
25.05.2019 13:00:00 10,9 8,1 11 6 ZZO 1004,5 50
25.05.2019 12:00:00 10,4 7,8 7 4 Z 1004,6 45
25.05.2019 11:00:00 10,2 8,5 7 4 ZZO 1004,7 50
25.05.2019 10:00:00 10,1 7,2 11 6 NNW 1004,5 50
25.05.2019 09:00:00 9,4 7,5 7 4 NNW 1004,6 45
25.05.2019 08:00:00 8,4 7,5 7 4 NNW 1004,5 50
25.05.2019 07:00:00 7,8 7,4 7 4 NW 1004,6 50
25.05.2019 06:00:00 7,4 7,0 11 6 NW 1004,7 40
25.05.2019 05:00:00 7,4 7,0 7 4 NW 1004,8 27
25.05.2019 04:00:00 7,3 6,7 7 4 WNW 1004,9 18
25.05.2019 03:00:00 7,5 6,9 7 4 NNW 1005,0 17
25.05.2019 02:00:00 7,3 6,9 4 2 WNW 1005,3 30
25.05.2019 01:00:00 7,4 6,8 11 6 NW 1005,4 20
25.05.2019 00:00:00 7,6 6,5 7 4 NW 1005,6 23
24.05.2019 23:00:00 7,6 6,7 7 4 NNW 1006,0 24
24.05.2019 22:00:00 7,4 6,8 4 2 NW 1006,2 27
24.05.2019 21:00:00 7,5 6,6 7 4 NNO 1006,5 19
24.05.2019 20:00:00 7,7 6,2 4 2 NO 1007,0 30
24.05.2019 19:00:00 7,5 6,3 7 4 O 1007,3 45
24.05.2019 18:00:00 7,8 5,9 11 6 OZO 1007,5 50
24.05.2019 17:00:00 8,4 6,4 14 8 ZO 1008,0 50
24.05.2019 16:00:00 8,7 6,3 14 8 ZO 1008,0 50
24.05.2019 15:00:00 8,9 6,2 7 4 OZO 1007,8 45
24.05.2019 14:00:00 8,7 6,3 11 6 ZZO 1008,1 45
24.05.2019 13:00:00 9,3 6,9 14 8 ZZO 1008,3 45
24.05.2019 12:00:00 9,2 6,6 11 6 ZZO 1008,6 40
24.05.2019 11:00:00 9,1 6,4 4 2 ZZO 1008,7 30
24.05.2019 10:00:00 8,7 6,1 4 2 NNO 1008,7 50
24.05.2019 09:00:00 8,3 6,3 4 2 N 1008,7 50
24.05.2019 08:00:00 8,1 5,7 0 0 N 1009,0 50
24.05.2019 07:00:00 7,8 6,9 4 2 ZZW 1009,0 50
24.05.2019 06:00:00 7,2 6,5 0 0 N 1008,8 50
24.05.2019 05:00:00 7,1 6,7 4 2 NW 1009,0 50
24.05.2019 04:00:00 6,6 6,3 14 8 NNW 1009,1 35
24.05.2019 03:00:00 6,8 6,5 7 4 NNW 1009,6 10
24.05.2019 02:00:00 6,7 6,4 7 4 WNW 1009,8 25
24.05.2019 01:00:00 6,7 6,4 4 2 W 1010,2 5
24.05.2019 00:00:00 6,7 6,3 7 4 WNW 1010,4 50
23.05.2019 23:00:00 6,7 6,3 7 4 W 1010,4 50
23.05.2019 22:00:00 6,5 6,1 7 4 W 1010,4 50
23.05.2019 21:00:00 6,1 5,8 18 10 NNW 1010,6 8
23.05.2019 20:00:00 6,1 5,7 11 6 WNW 1011,3 6
23.05.2019 19:00:00 6,2 5,8 11 6 NW 1011,5 6
23.05.2019 18:00:00 6,4 5,7 7 4 NNW 1012,0 9
23.05.2019 17:00:00 6,2 5,2 7 4 N 1012,4 5
23.05.2019 16:00:00 6,1 5,1 11 6 NNO 1012,7 3,3
23.05.2019 15:00:00 6,2 4,2 4 2 NNW 1012,8 16
23.05.2019 14:00:00 6,5 4,3 4 2 ZO 1013,3 35
23.05.2019 13:00:00 6,5 4,5 4 2 NW 1013,3 30
23.05.2019 12:00:00 6,6 4,3 14 8 NO 1013,4 29
23.05.2019 11:00:00 6,5 4,2 4 2 WZW 1013,8 40
23.05.2019 10:00:00 6,5 4,2 4 2 NNO 1013,6 45
23.05.2019 09:00:00 6,4 3,7 14 8 NNO 1014,0 50
23.05.2019 08:00:00 6,7 4,0 7 4 O 1013,9 45
23.05.2019 07:00:00 7,9 4,5 11 6 NNO 1013,3 30
23.05.2019 06:00:00 8,6 4,4 7 4 N 1013,4 50
23.05.2019 05:00:00 9,0 3,4 14 8 NNO 1013,5 50
23.05.2019 04:00:00 9,6 2,9 11 6 N 1013,7 50
23.05.2019 03:00:00 9,9 3,0 7 4 N 1013,7 50
23.05.2019 02:00:00 9,6 2,9 7 4 NNW 1013,6 50
23.05.2019 01:00:00 9,5 3,2 4 2 NNW 1013,9 35
23.05.2019 00:00:00 9,3 3,9 7 4 NNO 1014,1 45
22.05.2019 23:00:00 9,7 4,9 7 4 NO 1014,1 40
22.05.2019 22:00:00 10,4 6,5 7 4 NO 1013,8 25
22.05.2019 21:00:00 11,6 7,5 7 4 ONO 1013,5 22
22.05.2019 20:00:00 13,1 7,8 14 8 O 1013,2 30
22.05.2019 19:00:00 13,3 8,6 11 6 ZZW 1013,2 30
22.05.2019 18:00:00 14,6 9,2 22 12 ZZO 1013,0 21
22.05.2019 17:00:00 17,0 9,4 18 10 ZZO 1012,6 28
22.05.2019 16:00:00 16,4 9,6 18 10 Z 1013,0 40
22.05.2019 15:00:00 17,2 9,6 22 12 ZZO 1013,4 30
22.05.2019 14:00:00 18,7 10,0 22 12 ZZO 1013,4 45
22.05.2019 13:00:00 18,8 10,1 18 10 Z 1013,5 50
22.05.2019 12:00:00 18,3 10,1 25 14 Z 1013,6 40
22.05.2019 11:00:00 18,7 10,3 14 8 ZZO 1013,6 28
22.05.2019 10:00:00 18,8 10,1 11 6 ONO 1013,6 45
22.05.2019 09:00:00 18,1 9,7 11 6 ONO 1013,6 40
22.05.2019 08:00:00 15,7 10,5 7 4 NW 1013,7 35
22.05.2019 07:00:00 12,7 9,2 11 6 NW 1014,0 30
22.05.2019 06:00:00 10,2 8,1 7 4 WNW 1014,0 40
22.05.2019 05:00:00 8,3 7,9 4 2 NW 1014,1 -
22.05.2019 04:00:00 6,8 5,9 4 2 NNW 1014,5 7
22.05.2019 03:00:00 8,6 7,8 7 4 NNW 1014,4 9
22.05.2019 02:00:00 9,1 8,6 7 4 NW 1014,6 16
22.05.2019 01:00:00 8,6 8,0 7 4 NNW 1014,8 22
22.05.2019 00:00:00 8,7 8,3 7 4 NNW 1015,1 16
21.05.2019 23:00:00 9,3 8,1 4 2 NW 1015,1 30
21.05.2019 22:00:00 12,6 8,9 4 2 ONO 1015,2 50
21.05.2019 21:00:00 13,8 9,2 4 2 O 1014,6 50
21.05.2019 20:00:00 15,4 10,0 0 0 N 1014,3 45
21.05.2019 19:00:00 14,9 10,1 7 4 Z 1014,2 30
21.05.2019 18:00:00 15,6 10,1 7 4 Z 1014,0 45
21.05.2019 17:00:00 17,2 10,8 11 6 Z 1013,9 40
21.05.2019 16:00:00 16,7 10,5 18 10 Z 1014,0 20
21.05.2019 15:00:00 17,5 10,6 14 8 Z 1014,1 30
21.05.2019 14:00:00 17,0 10,6 22 12 Z 1014,2 27
21.05.2019 13:00:00 17,7 10,6 14 8 Z 1014,5 45
21.05.2019 12:00:00 17,2 11,0 18 10 Z 1014,7 40
21.05.2019 11:00:00 18,7 11,3 14 8 ZZO 1014,5 35
21.05.2019 10:00:00 17,7 11,7 14 8 ZO 1014,2 21
21.05.2019 09:00:00 17,0 11,5 7 4 ZZO 1013,8 25
21.05.2019 08:00:00 15,7 10,9 4 2 W 1014,0 35
21.05.2019 07:00:00 12,7 9,9 - - - 1014,1 35
21.05.2019 06:00:00 10,8 9,4 - - - 1014,0 14
21.05.2019 05:00:00 10,0 9,5 - - - 1013,6 21
21.05.2019 04:00:00 6,6 6,6 - - - 1013,6 6
21.05.2019 03:00:00 7,5 7,5 - - - 1013,9 4,7
21.05.2019 02:00:00 7,6 7,5 - - - 1013,8 0,1
21.05.2019 01:00:00 7,7 7,6 - - - 1013,7 2,2
21.05.2019 00:00:00 8,8 8,7 7 4 NW 1013,7 9
20.05.2019 23:00:00 8,8 8,5 0 0 N 1014,1 0,8
20.05.2019 22:00:00 10,7 10,1 4 2 Z 1013,7 17
20.05.2019 21:00:00 12,3 9,9 4 2 O 1013,6 30
20.05.2019 20:00:00 13,4 10,0 11 6 ZO 1013,6 35
20.05.2019 19:00:00 14,5 9,7 14 8 ZO 1013,4 40
20.05.2019 18:00:00 16,4 10,0 11 6 ZO 1013,5 50
20.05.2019 17:00:00 17,2 9,9 11 6 ZZO 1013,5 45
20.05.2019 16:00:00 15,5 7,8 22 12 ZZO 1013,8 40
20.05.2019 15:00:00 18,0 9,6 22 12 ZZO 1013,6 40
20.05.2019 14:00:00 20,2 10,6 11 6 ZZO 1013,6 35
20.05.2019 13:00:00 20,0 10,4 11 6 ZZO 1013,9 45
20.05.2019 12:00:00 18,8 9,3 11 6 ZO 1014,2 20
20.05.2019 11:00:00 18,0 9,9 7 4 ZO 1014,3 40
20.05.2019 10:00:00 16,1 9,3 4 2 ZZW 1014,4 45
20.05.2019 09:00:00 15,8 8,0 4 2 OZO 1014,6 35
20.05.2019 08:00:00 13,1 6,9 4 2 ZW 1014,7 35
20.05.2019 07:00:00 10,0 5,8 7 4 NW 1015,0 35
20.05.2019 06:00:00 7,2 5,2 7 4 NW 1015,0 45
20.05.2019 05:00:00 5,4 5,0 4 2 NNW 1015,3 20
20.05.2019 04:00:00 4,2 3,8 4 2 WNW 1015,4 14
20.05.2019 03:00:00 5,7 4,7 7 4 W 1015,4 -
20.05.2019 02:00:00 4,4 4,1 4 2 NNW 1015,2 22
20.05.2019 01:00:00 5,3 4,9 4 2 N 1015,6 19
20.05.2019 00:00:00 6,2 5,5 4 2 NNW 1015,5 45
19.05.2019 23:00:00 7,6 5,2 0 0 N 1015,5 50
19.05.2019 22:00:00 10,2 5,6 4 2 ZZO 1015,2 50

tt = temperatuur
td = dauwpunt
ff = windsnelheid
dd = windrichting
ppp = luchtdruk
vv = zicht

Weerstations in de omgeving